Tracking 35275 objects as of 8-Sep-2026
HD Live streaming from Space Station
objects crossing your sky now

FREGAT DEB


FREGAT DEB is no longer on orbit


NORAD ID: 44608
Int'l Code: 2017-042CB
Launch date: July 14, 2017
Source: Commonwealth of Independent States (former USSR) (CIS)
Launch site: TYURATAM MISSILE AND SPACE COMPLEX (TTMTR)
Decay date: 2024-08-14

Note: This is SATELLITE DEBRIS
Your satellite tracking list
Your tracking list is empty




NASA's NSSDC Master Catalog

Two Line Element Set (TLE):
1 44608U 17042CB  24227.25618124  .00787296  00000-0  30728-2 0  9993
2 44608  97.4885 153.3611 0012523 214.2310 145.8154 15.85066822366388
Source of the keplerian elements: AFSPC